• In Latvia
  • List of Countries
  • For 7 days
  • Water Temperature
  • Satellite Maps
  • Weather Map
  • Weather Widgets
  • user-avatar
    Login

    Hourly Weather Auce

    Today, 29 June, Thursday

    Time Temperature Precipitation Wind Pressure Humidity
    00:00 +12°C° 0 mm 4 mps 748 mmHg 72%
    01:00 +12°C° 0 mm 4 mps 748 mmHg 75%
    02:00 +12°C° 0 mm 4 mps 747 mmHg 77%
    03:00 +12°C° 0 mm 4 mps 747 mmHg 78%
    04:00 +13°C° 0 mm 4 mps 746 mmHg 78%
    05:00 +13°C° 0 mm 4 mps 746 mmHg 79%
    06:00 +14°C° 0.1 mm 5 mps 746 mmHg 78%
    07:00 +15°C° 0.1 mm 5 mps 745 mmHg 77%
    08:00 +16°C° 0.1 mm 5 mps 745 mmHg 76%
    09:00 +16°C° 0.9 mm 5 mps 744 mmHg 80%
    10:00 +17°C° 0.9 mm 5 mps 744 mmHg 85%
    11:00 +17°C° 0.9 mm 5 mps 744 mmHg 90%
    12:00 +19°C° 1.5 mm 5 mps 743 mmHg 91%
    13:00 +20°C° 1.5 mm 5 mps 743 mmHg 92%
    14:00 +20°C° 1.5 mm 5 mps 742 mmHg 93%
    15:00 +21°C° 0.6 mm 5 mps 742 mmHg 93%
    16:00 +21°C° 0.6 mm 5 mps 742 mmHg 93%
    17:00 +22°C° 0.6 mm 4 mps 742 mmHg 93%
    18:00 +22°C° 0.6 mm 4 mps 741 mmHg 93%
    19:00 +22°C° 0.6 mm 4 mps 741 mmHg 94%
    20:00 +21°C° 0.6 mm 3 mps 740 mmHg 95%
    21:00 +21°C° 1 mm 3 mps 740 mmHg 95%
    22:00 +20°C° 1 mm 3 mps 739 mmHg 96%
    23:00 +20°C° 1 mm 3 mps 739 mmHg 96%

    Tomorrow, 30 June, Friday

    Time Temperature Precipitation Wind Pressure Humidity
    00:00 +19°C° 0.3 mm 3 mps 739 mmHg 97%
    01:00 +19°C° 0.3 mm 3 mps 738 mmHg 97%
    02:00 +19°C° 0.3 mm 3 mps 738 mmHg 98%
    03:00 +19°C° 0.7 mm 3 mps 738 mmHg 98%
    04:00 +19°C° 0.7 mm 3 mps 738 mmHg 98%
    05:00 +19°C° 0.7 mm 3 mps 737 mmHg 98%
    06:00 +19°C° 0.1 mm 3 mps 737 mmHg 97%
    07:00 +19°C° 0.1 mm 3 mps 737 mmHg 95%
    08:00 +19°C° 0.1 mm 4 mps 737 mmHg 94%
    09:00 +19°C° 0.1 mm 4 mps 737 mmHg 91%
    10:00 +19°C° 0.1 mm 4 mps 737 mmHg 89%
    11:00 +20°C° 0.1 mm 4 mps 737 mmHg 87%
    12:00 +19°C° 0.2 mm 4 mps 737 mmHg 87%
    13:00 +19°C° 0.2 mm 4 mps 737 mmHg 88%
    14:00 +19°C° 0.2 mm 5 mps 737 mmHg 88%
    15:00 +17°C° 0.2 mm 5 mps 737 mmHg 88%
    16:00 +17°C° 0.2 mm 5 mps 738 mmHg 88%
    17:00 +16°C° 0.2 mm 5 mps 738 mmHg 88%
    18:00 +16°C° 0.6 mm 5 mps 738 mmHg 90%
    19:00 +15°C° 0.6 mm 5 mps 738 mmHg 92%
    20:00 +15°C° 0.6 mm 5 mps 738 mmHg 94%
    21:00 +15°C° 0.6 mm 5 mps 738 mmHg 94%
    22:00 +15°C° 0.6 mm 5 mps 738 mmHg 95%
    23:00 +15°C° 0.6 mm 6 mps 738 mmHg 95%

    Day after tomorrow, 1 July, Saturday

    Time Temperature Precipitation Wind Pressure Humidity
    00:00 +14°C° 0.4 mm 6 mps 738 mmHg 95%
    01:00 +14°C° 0.4 mm 6 mps 739 mmHg 95%
    02:00 +14°C° 0.4 mm 6 mps 739 mmHg 95%
    03:00 +14°C° 0.6 mm 6 mps 739 mmHg 95%
    04:00 +14°C° 0.6 mm 6 mps 739 mmHg 96%
    05:00 +14°C° 0.6 mm 6 mps 739 mmHg 96%
    06:00 +15°C° 0.7 mm 6 mps 740 mmHg 95%
    07:00 +15°C° 0.7 mm 6 mps 740 mmHg 94%
    08:00 +15°C° 0.7 mm 6 mps 740 mmHg 93%
    09:00 +15°C° 0.3 mm 6 mps 740 mmHg 90%
    10:00 +16°C° 0.3 mm 6 mps 741 mmHg 86%
    11:00 +16°C° 0.3 mm 6 mps 741 mmHg 83%
    12:00 +17°C° 0.1 mm 6 mps 741 mmHg 78%
    13:00 +19°C° 0.1 mm 6 mps 742 mmHg 73%
    14:00 +20°C° 0.1 mm 5 mps 742 mmHg 69%
    15:00 +20°C° 0.1 mm 5 mps 742 mmHg 69%
    16:00 +20°C° 0.1 mm 4 mps 742 mmHg 69%
    17:00 +20°C° 0.1 mm 4 mps 742 mmHg 69%
    18:00 +19°C° 0.2 mm 3 mps 742 mmHg 75%
    19:00 +18°C° 0.2 mm 3 mps 742 mmHg 81%
    20:00 +17°C° 0.2 mm 2 mps 742 mmHg 88%
    21:00 +17°C° 0.1 mm 2 mps 742 mmHg 90%
    22:00 +16°C° 0.1 mm 2 mps 742 mmHg 93%
    23:00 +15°C° 0.1 mm 2 mps 742 mmHg 96%

    2 July, Sunday

    Time Temperature Precipitation Wind Pressure Humidity
    00:00 +15°C° 0.5 mm 2 mps 741 mmHg 97%
    01:00 +15°C° 0.5 mm 2 mps 741 mmHg 97%
    02:00 +14°C° 0.5 mm 3 mps 741 mmHg 97%
    03:00 +14°C° 0.5 mm 3 mps 741 mmHg 98%
    04:00 +14°C° 0.5 mm 3 mps 741 mmHg 98%
    05:00 +14°C° 0.5 mm 3 mps 741 mmHg 98%
    06:00 +14°C° 0.7 mm 3 mps 741 mmHg 97%
    07:00 +14°C° 0.7 mm 4 mps 741 mmHg 96%
    08:00 +15°C° 0.7 mm 4 mps 741 mmHg 96%
    09:00 +15°C° 0.4 mm 4 mps 741 mmHg 93%
    10:00 +15°C° 0.4 mm 4 mps 741 mmHg 91%
    11:00 +17°C° 0.4 mm 4 mps 741 mmHg 88%
    12:00 +17°C° 0.3 mm 4 mps 741 mmHg 86%
    13:00 +17°C° 0.3 mm 4 mps 741 mmHg 85%
    14:00 +18°C° 0.3 mm 4 mps 741 mmHg 83%
    15:00 +18°C° 0.2 mm 4 mps 741 mmHg 84%
    16:00 +18°C° 0.2 mm 4 mps 741 mmHg 85%
    17:00 +17°C° 0.2 mm 4 mps 741 mmHg 87%
    18:00 +17°C° 0.2 mm 3 mps 741 mmHg 90%
    19:00 +16°C° 0.2 mm 3 mps 741 mmHg 93%
    20:00 +14°C° 0.2 mm 3 mps 741 mmHg 96%
    21:00 +14°C° 0.2 mm 3 mps 741 mmHg 96%
    22:00 +14°C° 0.2 mm 4 mps 741 mmHg 96%
    23:00 +14°C° 0.2 mm 4 mps 741 mmHg 96%

    3 July, Monday

    Time Temperature Precipitation Wind Pressure Humidity
    00:00 +13°C° 0.3 mm 4 mps 741 mmHg 96%
    01:00 +13°C° 0.3 mm 4 mps 741 mmHg 96%
    02:00 +13°C° 0.3 mm 4 mps 741 mmHg 96%
    03:00 +13°C° 0 mm 4 mps 741 mmHg 96%
    04:00 +13°C° 0 mm 4 mps 741 mmHg 95%
    05:00 +12°C° 0 mm 4 mps 741 mmHg 95%
    06:00 +13°C° 0.1 mm 4 mps 741 mmHg 94%
    07:00 +13°C° 0.1 mm 5 mps 742 mmHg 92%
    08:00 +13°C° 0.1 mm 5 mps 742 mmHg 91%
    09:00 +13°C° 0.1 mm 5 mps 742 mmHg 86%
    10:00 +14°C° 0.1 mm 6 mps 743 mmHg 81%
    11:00 +14°C° 0.1 mm 6 mps 743 mmHg 76%
    12:00 +14°C° 0 mm 6 mps 743 mmHg 73%
    13:00 +14°C° 0 mm 6 mps 744 mmHg 70%
    14:00 +14°C° 0 mm 6 mps 744 mmHg 68%
    15:00 +14°C° 0 mm 6 mps 744 mmHg 67%
    16:00 +14°C° 0 mm 6 mps 744 mmHg 67%
    17:00 +14°C° 0 mm 5 mps 744 mmHg 66%
    18:00 +14°C° 0 mm 5 mps 744 mmHg 68%
    19:00 +14°C° 0 mm 5 mps 744 mmHg 71%
    20:00 +13°C° 0 mm 4 mps 744 mmHg 73%
    21:00 +13°C° 0 mm 4 mps 743 mmHg 74%
    22:00 +12°C° 0 mm 4 mps 743 mmHg 75%
    23:00 +12°C° 0 mm 5 mps 743 mmHg 75%

    4 July, Tuesday

    Time Temperature Precipitation Wind Pressure Humidity
    00:00 +12°C° 0 mm 5 mps 743 mmHg 77%
    01:00 +10°C° 0 mm 5 mps 743 mmHg 79%
    02:00 +10°C° 0 mm 5 mps 742 mmHg 81%
    03:00 +10°C° 0 mm 5 mps 742 mmHg 82%
    04:00 +10°C° 0 mm 5 mps 742 mmHg 82%
    05:00 +10°C° 0 mm 5 mps 742 mmHg 83%
    06:00 +12°C° 0.1 mm 5 mps 742 mmHg 82%
    07:00 +11°C° 0.1 mm 6 mps 742 mmHg 80%
    08:00 +13°C° 0.1 mm 6 mps 742 mmHg 78%
    09:00 +13°C° 0.2 mm 6 mps 742 mmHg 80%
    10:00 +13°C° 0.2 mm 6 mps 742 mmHg 82%
    11:00 +13°C° 0.2 mm 6 mps 742 mmHg 83%
    12:00 +13°C° 0.2 mm 6 mps 742 mmHg 83%
    13:00 +13°C° 0.2 mm 6 mps 742 mmHg 83%
    14:00 +13°C° 0.2 mm 6 mps 743 mmHg 82%
    15:00 +14°C° 0.1 mm 6 mps 743 mmHg 81%
    16:00 +14°C° 0.1 mm 5 mps 743 mmHg 80%
    17:00 +14°C° 0.1 mm 5 mps 743 mmHg 79%
    18:00 +14°C° 0.1 mm 5 mps 743 mmHg 81%
    19:00 +13°C° 0.1 mm 5 mps 743 mmHg 83%
    20:00 +13°C° 0.1 mm 4 mps 743 mmHg 86%
    21:00 +13°C° 0.1 mm 4 mps 743 mmHg 88%
    22:00 +12°C° 0.1 mm 4 mps 743 mmHg 91%
    23:00 +12°C° 0.1 mm 4 mps 743 mmHg 94%
    Show more